Regional Weather Roundup
Issued by NWS

Home | Current Version | Previous Version | Text Only | Print | Product List | Glossary Off
Versions: 1 2 3 4 5 6 7 8 9 10 11 12 13 14 15 16 17 18 19 20 21 22 23 24 25 26 27 28 29 30 31 32 33 34 35 36 37 38 39 40 41 42 43 44 45 46 47 48 49 50

000
ASUS43 KDMX 261406
RWRIA

WEATHER ROUNDUP FOR IOWA
NATIONAL WEATHER SERVICE DES MOINES IA
800 AM CST SUN FEB 26 2017

NOTE: "FAIR" INDICATES FEW OR NO CLOUDS BELOW 12,000 FEET WITH NO
SIGNIFICANT WEATHER AND/OR OBSTRUCTIONS TO VISIBILITY.

* - THESE STATIONS ARE NOT NWS STATIONS...THUS NOT UNDER NWS
QUALITY CONTROL.  THEY ALSO DO NOT REPORT WEATHER SUCH
AS PRECIPITATION OR FOG.

IAZ001>003-012>014-020>022-031>034-043>046-261500-
   NORTHWEST IOWA

CITY           SKY/WX    TMP DP  RH WIND       PRES   REMARKS
CARROLL *      SUNNY     27  23  86 W12       29.86R WCI  16
CHEROKEE *     CLEAR     18  16  91 S6        29.83R WCI  10
DENISON *      CLEAR     25  18  74 SW3       29.84R
LE MARS *      CLEAR     18  12  79 CALM      29.85R
SHELDON *      CLEAR     18  18 100 SW5       29.79R WCI  11
SIOUX CITY     CLEAR     20  12  71 W6        29.85R WCI  12
SPENCER        CLEAR     13  12  96 CALM      29.80R
STORM LAKE *   CLEAR     19  16  86 SW10      29.82R WCI   8
$$

IAZ055>058-069>071-079>083-090>094-261500-
   SOUTHWEST IOWA

CITY           SKY/WX    TMP DP  RH WIND       PRES   REMARKS
ATLANTIC *     SUNNY     25  21  86 SW6       29.90R WCI  18
AUDUBON *      SUNNY     27  19  74 SW5       29.87R WCI  21
CLARINDA *     SUNNY     30  23  74 CALM      29.96R
COUNCIL BLFS * CLEAR     30  23  74 SW7       29.89R WCI  23
CRESTON *      SUNNY     30  21  69 SW10      29.92R WCI  21
HARLAN  *      CLEAR     21  21 100 S6        29.92R WCI  14
LAMONI         MOSUNNY   30  19  63 SW13      29.93R WCI  20
RED OAK *      SUNNY     32  23  69 SW12      29.91R WCI  23
SHENANDOAH *   SUNNY     32  25  74 SW8       29.93S WCI  25
$$

IAZ047>049-059>061-072>074-084-261500-
   CENTRAL IOWA

CITY           SKY/WX    TMP DP  RH WIND       PRES   REMARKS
AMES           SUNNY     28  23  81 SW13      29.88R WCI  17
ANKENY *       SUNNY     32  21  64 SW9G16    29.91R WCI  24
BOONE *        SUNNY     28  21  74 SW14      29.86R WCI  17
CHARITON *     PTSUNNY   32  19  59 SW12G20   29.93R WCI  23
DES MOINES     MOSUNNY   31  21  66 SW10      29.90R WCI  22
GRINNELL*      SUNNY     30  21  70 SW13      29.90R WCI  20
KNOXVILLE *    SUNNY     32  19  59 SW10G18   29.90S WCI  24
MARSHALLTOWN   SUNNY     28  22  78 SW15      29.86R WCI  16
NEWTON *       SUNNY     30  21  69 SW12      29.89R WCI  21
PELLA *        SUNNY     32  20  60 SW7       29.93R WCI  26
PERRY *          N/A     26  22  83 SW9       29.88R WCI  17
$$

IAZ004>006-015-016-023>025-035-036-261500-
   NORTH CENTRAL IOWA

CITY           SKY/WX    TMP DP  RH WIND       PRES   REMARKS
ALGONA *       FLURRIES  16  14  93 SW10      29.80R WCI   3
CLARION *      SUNNY     19  18  93 S9        29.84R WCI   9
ESTHERVILLE    CLEAR     18  15  88 W9        29.78R WCI   7
FORT DODGE *   SUNNY     21  16  79 S6        29.85R WCI  14
MASON CITY     SUNNY     23  17  78 W15       29.82R WCI  10
FOREST CITY *    N/A     19  16  86 SW5       29.81R WCI  13
WEBSTER CITY * SUNNY     23  19  86 SW9       29.83R WCI  13
IOWA FALLS *     N/A     27  22  80 SW12      29.86R WCI  17
$$

IAZ007>011-017>019-026>030-037>042-050>054-066-261500-
   NORTHEAST IOWA

CITY           SKY/WX    TMP DP  RH WIND       PRES   REMARKS
CEDAR RAPIDS   SUNNY     30  20  66 SW18      29.89R WCI  18
CHARLES CITY * SUNNY     25  19  80 SW12      29.83R WCI  14
CLINTON *      MOSUNNY   32  21  64 SW18      29.93R WCI  20
DECORAH *      SUNNY     28  19  69 SW8G15    29.80R WCI  20
DUBUQUE        SUNNY     28  19  69 SW17      29.86R WCI  16
MONTICELLO *   SUNNY     32  19  59 SW9       29.88S WCI  24
OELWEIN *      SUNNY     27  23  86 SW12      29.84S WCI  16
WATERLOO       SUNNY     28  20  71 SW17      29.85R WCI  16
$$

IAZ064-065-067-068-078-261500-
   EAST CENTRAL IOWA

CITY           SKY/WX    TMP DP  RH WIND       PRES   REMARKS
DAVENPORT      MOSUNNY   31  18  58 SW15      29.94R WCI  20
IOWA CITY      SUNNY     32  19  58 SW12      29.94R WCI  23
MUSCATINE *    MOSUNNY   34  18  51 SW14G22   29.96R WCI  24
QUAD CITIES    CLOUDY    33  17  51 S18       29.94S WCI  22
$$

IAZ062-063-075>077-085>089-095>099-261500-
   SOUTHEAST IOWA

CITY           SKY/WX    TMP DP  RH WIND       PRES   REMARKS
BURLINGTON     CLOUDY    33  19  56 S14G23    29.98R WCI  23
FAIRFIELD *    MOSUNNY   34  18  51 SW15      29.94R WCI  24
KEOKUK *       CLOUDY    32  18  55 SW12      30.00R WCI  23
CENTERVILLE *    N/A     32  18  55 S15       29.97R WCI  22
OTTUMWA        PTSUNNY   36  18  48 SW14      29.93R WCI  27
WASHINGTON *   MOSUNNY   32  19  59 SW14      29.95R WCI  22
$$

ABBREVIATIONS USED IN REMARKS
   TC - TEMPERATURES IN CELSIUS
  WCI - WIND CHILL INDEX
   HX - HEAT INDEX
  VSB - VISIBILITY
$$




USA.gov is the U.S. government's official web portal to all federal, state and local government web resources and services.